Gunnison, CO

7:44 PM MDT on July 24, 2017 (GMT -0600)
Gunnison County

Weather History for KGUC - July, 2013

Change the Weather History Date:

Thursday, July 11, 2013

  Actual Average Record
Temperature  
Mean Temperature 68 °F -  
Max Temperature 86 °F 77 °F 89 °F (2003)
Min Temperature 51 °F 44 °F 39 °F (2003)
Cooling Degree Days 4    
Growing Degree Days 18 (Base 50)    
Moisture  
Dew Point 43 °F    
Average Humidity 43    
Maximum Humidity 67    
Minimum Humidity 18    
Precipitation  
Precipitation 0.00 in - - ()
Sea Level Pressure  
Sea Level Pressure 30.33 in    
Wind  
Wind Speed 6 mph (WSW)    
Max Wind Speed 21 mph    
Max Gust Speed 30 mph    
Visibility 10 miles    
Events Thunderstorm    
Averages and records for this station are not official NWS values.
T = Trace of Precipitation, MM = Missing Value Source: NWS Daily Summary

Daily Weather History Graph

Daily Weather History Graph

Search for Another Location

Airport or City:

Trip Planner

Search our weather history database for the weather conditions in past years. The results will help you decide how hot, cold, wet, or windy it might be!

Date:

Astronomy

Jul. 11, 2013 Rise Set
Actual Time 5:53 AM MDT 8:33 PM MDT
Civil Twilight 5:22 AM MDT 9:04 PM MDT
Nautical Twilight 4:43 AM MDT 9:42 PM MDT
Astronomical Twilight 3:59 AM MDT 10:26 PM MDT
Moon 9:11 AM MDT (7/11) 10:18 PM MDT (7/11)
Length of Visible Light 15h 42m
Length of Day
14h 39m
Waxing Crescent, 11% of the Moon is Illuminated
Jul 11
Waxing Crescent
Jul 15
First Quarter
Jul 22
Full
Jul 29
Last Quarter
Aug 6
New

Hourly Weather History & Observations

Time (MDT) Temp. Dew Point Humidity Pressure Visibility Wind Dir Wind Speed Gust Speed Precip Events Conditions
12:15 AM 66.2 °F 42.8 °F 43% 30.37 in 10.0 mi SE 8.1 mph - N/A   Clear
12:35 AM 66.2 °F 42.8 °F 43% 30.38 in 10.0 mi Calm Calm - N/A   Clear
12:55 AM 68.0 °F 42.8 °F 40% 30.38 in 10.0 mi East 10.4 mph - N/A   Clear
1:15 AM 66.2 °F 42.8 °F 43% 30.38 in 10.0 mi ESE 8.1 mph - N/A   Clear
1:35 AM 66.2 °F 42.8 °F 43% 30.39 in 10.0 mi NNE 6.9 mph - N/A   Clear
2:15 AM 59.0 °F 42.8 °F 55% 30.38 in 10.0 mi North 8.1 mph - N/A   Clear
2:35 AM 57.2 °F 42.8 °F 59% 30.38 in 10.0 mi North 11.5 mph - N/A   Clear
2:55 AM 55.4 °F 41.0 °F 58% 30.38 in 10.0 mi NNE 9.2 mph - N/A   Clear
3:15 AM 55.4 °F 41.0 °F 58% 30.37 in 10.0 mi NNE 10.4 mph - N/A   Clear
3:35 AM 55.4 °F 41.0 °F 58% 30.37 in 10.0 mi North 10.4 mph - N/A   Clear
3:55 AM 55.4 °F 41.0 °F 58% 30.37 in 10.0 mi NE 5.8 mph - N/A   Clear
4:15 AM 55.4 °F 41.0 °F 58% 30.37 in 10.0 mi NNE 5.8 mph - N/A   Clear
4:35 AM 55.4 °F 41.0 °F 58% 30.37 in 10.0 mi East 3.5 mph - N/A   Clear
4:55 AM 53.6 °F 41.0 °F 62% 30.38 in 10.0 mi Calm Calm - N/A   Clear
5:15 AM 53.6 °F 41.0 °F 62% 30.38 in 10.0 mi NNE 5.8 mph - N/A   Clear
5:35 AM 55.4 °F 39.2 °F 54% 30.38 in 10.0 mi North 5.8 mph - N/A   Clear
5:55 AM 53.6 °F 39.2 °F 58% 30.39 in 10.0 mi Calm Calm - N/A   Clear
6:15 AM 51.8 °F 41.0 °F 67% 30.39 in 10.0 mi Calm Calm - N/A   Clear
6:35 AM 53.6 °F 41.0 °F 62% 30.40 in 10.0 mi Calm Calm - N/A   Clear
6:55 AM 53.6 °F 41.0 °F 62% 30.40 in 10.0 mi Calm Calm - N/A   Clear
7:15 AM 53.6 °F 41.0 °F 62% 30.40 in 10.0 mi NNW 4.6 mph - N/A   Clear
7:35 AM 55.4 °F 42.8 °F 63% 30.41 in 10.0 mi NNE 4.6 mph - N/A   Clear
8:15 AM 60.8 °F 42.8 °F 52% 30.41 in 10.0 mi Calm Calm - N/A   Clear
8:35 AM 60.8 °F 42.8 °F 52% 30.41 in 10.0 mi NNW 5.8 mph - N/A   Clear
8:55 AM 62.6 °F 44.6 °F 52% 30.40 in 10.0 mi NNW 4.6 mph - N/A   Clear
9:15 AM 64.4 °F 42.8 °F 45% 30.40 in 10.0 mi NNW 3.5 mph - N/A   Clear
9:35 AM 66.2 °F 44.6 °F 46% 30.39 in 10.0 mi Calm Calm - N/A   Clear
9:55 AM 69.8 °F 42.8 °F 38% 30.38 in 10.0 mi North 3.5 mph - N/A   Clear
10:15 AM 69.8 °F 42.8 °F 38% 30.37 in 10.0 mi Calm Calm - N/A   Clear
10:35 AM 71.6 °F 44.6 °F 38% 30.36 in 10.0 mi NNE 4.6 mph - N/A   Clear
10:55 AM 73.4 °F 44.6 °F 36% 30.36 in 10.0 mi Calm Calm - N/A   Clear
11:15 AM 73.4 °F 42.8 °F 33% 30.35 in 10.0 mi Calm Calm - N/A   Clear
11:35 AM 75.2 °F 42.8 °F 31% 30.34 in 10.0 mi West 3.5 mph - N/A   Clear
11:55 AM 77.0 °F 42.8 °F 29% 30.32 in 10.0 mi South 3.5 mph - N/A   Clear
12:15 PM 78.8 °F 41.0 °F 26% 30.31 in 10.0 mi Calm Calm - N/A   Clear
12:35 PM 80.6 °F 41.0 °F 24% 30.30 in 10.0 mi SW 4.6 mph - N/A   Clear
12:55 PM 80.6 °F 39.2 °F 23% 30.29 in 10.0 mi SW 3.5 mph - N/A   Clear
1:15 PM 82.4 °F 39.2 °F 21% 30.28 in 10.0 mi SW 3.5 mph - N/A   Clear
1:35 PM 82.4 °F 37.4 °F 20% 30.27 in 10.0 mi WSW 6.9 mph - N/A   Partly Cloudy
1:55 PM 82.4 °F 39.2 °F 21% 30.26 in 10.0 mi WSW 5.8 mph - N/A   Mostly Cloudy
2:15 PM 84.2 °F 37.4 °F 19% 30.25 in 10.0 mi WSW 4.6 mph - N/A   Scattered Clouds
2:35 PM 84.2 °F 35.6 °F 18% 30.24 in 10.0 mi West 5.8 mph - N/A   Partly Cloudy
2:55 PM 86.0 °F 37.4 °F 18% 30.24 in 10.0 mi SSW 8.1 mph - N/A   Clear
3:35 PM 82.4 °F 41.0 °F 23% 30.23 in 10.0 mi WSW 8.1 mph - N/A   Clear
3:55 PM 84.2 °F 39.2 °F 20% 30.22 in 10.0 mi ESE 20.7 mph 29.9 mph N/A   Partly Cloudy
4:15 PM 82.4 °F 37.4 °F 20% 30.22 in 10.0 mi SSE 9.2 mph - N/A   Scattered Clouds
4:35 PM 78.8 °F 37.4 °F 23% 30.24 in 10.0 mi SSW 16.1 mph 26.5 mph N/A Thunderstorm Mostly Cloudy
4:55 PM 71.6 °F 46.4 °F 41% 30.25 in 10.0 mi SSW 13.8 mph 25.3 mph N/A   Mostly Cloudy
5:15 PM 71.6 °F 44.6 °F 38% 30.25 in 10.0 mi SW 12.7 mph 19.6 mph N/A Thunderstorm Mostly Cloudy
5:55 PM 73.4 °F 41.0 °F 31% 30.24 in 10.0 mi West 8.1 mph - N/A   Mostly Cloudy
6:15 PM 71.6 °F 44.6 °F 38% 30.25 in 10.0 mi SSW 9.2 mph - N/A   Mostly Cloudy
6:35 PM 71.6 °F 44.6 °F 38% 30.24 in 10.0 mi WSW 9.2 mph - N/A   Mostly Cloudy
6:55 PM 71.6 °F 44.6 °F 38% 30.25 in 10.0 mi SSW 11.5 mph - N/A   Mostly Cloudy
7:15 PM 71.6 °F 46.4 °F 41% 30.27 in 10.0 mi SW 9.2 mph - N/A   Mostly Cloudy
7:35 PM 69.8 °F 46.4 °F 43% 30.27 in 10.0 mi Calm Calm - N/A   Overcast
7:55 PM 69.8 °F 48.2 °F 46% 30.26 in 10.0 mi Calm Calm - N/A   Overcast
8:15 PM 71.6 °F 46.4 °F 41% 30.26 in 10.0 mi SSW 8.1 mph - N/A   Mostly Cloudy
8:35 PM 69.8 °F 46.4 °F 43% 30.26 in 10.0 mi Calm Calm - N/A   Clear
8:55 PM 69.8 °F 46.4 °F 43% 30.28 in 10.0 mi South 3.5 mph - N/A   Clear
9:15 PM 68.0 °F 46.4 °F 46% 30.29 in 10.0 mi WSW 4.6 mph - N/A   Clear
9:35 PM 66.2 °F 48.2 °F 52% 30.30 in 10.0 mi SW 3.5 mph - N/A   Partly Cloudy
9:55 PM 66.2 °F 46.4 °F 49% 30.30 in 10.0 mi South 4.6 mph - N/A   Partly Cloudy
10:15 PM 66.2 °F 48.2 °F 52% 30.31 in 10.0 mi SSW 8.1 mph - N/A   Clear
10:55 PM 64.4 °F 48.2 °F 56% 30.32 in 10.0 mi WSW 6.9 mph - N/A   Partly Cloudy
11:55 PM 64.4 °F 48.2 °F 56% 30.34 in 10.0 mi Calm Calm - N/A   Scattered Clouds